星链-37903(STARLINK-37903)

导读

STARLINK-37903(NORAD编号69945)是美国SpaceX公司星链低轨通信星座的成员卫星,属于第二代星链(Gen2)批次,推测于2025年末至2026年初发射入轨。作为全球卫星互联网组网的组成部分,它运行于低地球轨道,轨道周期约90-96分钟,配备自主轨道机动与防撞系统,搭载高通量通信载荷,支持星间链路传输,可向全球偏远地区、海洋及空域用户提供低延迟宽带互联网接入服务,截至2026年7月该卫星处于在轨运行状态。

Basic Information
目录编号:
69945
目录名称:
STARLINK-37903
国际标识:
2026-157C
轨道中心:
EARTH
卫星名称:
星链-37903
卫星全名:
星链-37903(STARLINK-37903)
卫星状态:
在轨 (已飞行58 天)
发射日期:
2026-07-09 UTC
国别 :
美国 (US)
星等 :
--
Orbit Information
数据来源 国际轨道数据 AOE轨道数据
星历时间 2026-09-05T03:52:34+0800
11小时前
查看轨道信息
2026-09-02T02:00:00+0800
3天前
查看轨道信息
半长轴 6840.824km 6840.822km
偏心率 0.0000686 0.0000514
轨道倾角 53.161° 53.162°
近地点辐角 115.615° 70.241°
升交点赤经 47.226° 61.617°
平近点角 244.493° 197.121°
近地点 462.217km 462.333km
远地点 463.157km 463.037km
周期 93.847分钟 93.847分钟
每日圈数 15.344055 15.344062
Detailed Information
固有亮度:
5
最大亮度:
2.5
卫星平台:
Starlink V1.0
覆盖范围:
全球
运营商:
太空探索技术公司
运营商所在国:
美国
制造商(研发单位):
太空探索技术公司
制造商所在国:
美国
使用方式:
暂无
Satellite Introduction
Starlink 计划是 SpaceX 推出的全球卫星互联网项目,通过发射低轨道卫星,为全球尤其是偏远地区提供高速、低延迟的互联网服务。自 2019 年起,Starlink 已部署数千颗卫星,旨在缩小全球数字鸿沟,推动互联网普及。该项目还为军事、航空等行业提供通信支持,带来广泛经济效益。
2D Orbit Map
3D Orbit Map
Orbit Altitude Analysis Chart
Orbit Inclination Analysis Chart
Orbit Comprehensive Analysis Chart
View Comprehensive Chart
Conjunction Data List
Event ID Objects TCA Miss Dist (km) Collision Risk Probability Collision Risk Index (CRI) Action
CDM_260830-220806-417706-994521
2026-08-30T
22:08:37+0000
0.321 km
远距离
3.249323E-4 高风险 0.85
CDM_260906-064105-504506-994521
2026-09-06T
06:41:08+0000
1.763 km
极远距离
3.365109E-6 低风险 0.46
CDM_260903-104806-454006-994522
ARCSTONE (64540)
2026-09-03T
10:48:04+0000
2.164 km
极远距离
1.626387E-6 低风险 0.39
CDM_260830-044605-188806-994522
2026-08-30T
04:46:33+0000
2.413 km
极远距离
1.62345E-6 低风险 0.39
CDM_260830-164006-417706-994521
2026-08-30T
16:40:21+0000
2.258 km
极远距离
1.353138E-6 低风险 0.38
CDM_260903-043805-912806-994522
2026-09-03T
04:38:04+0000
2.239 km
极远距离
1.350531E-6 低风险 0.38
CDM_260831-072005-419906-994521
2026-08-31T
07:20:45+0000
2.955 km
极远距离
1.191734E-6 低风险 0.37
CDM_260903-121105-258806-994521
2026-09-03T
12:11:52+0000
2.133 km
极远距离
7.113942E-7 极低风险 0.32